Home > Weather > Belfast > Past weeks

Flag for United Kingdom Past Weather in Belfast, Northern Ireland, United Kingdom — Yesterday and Last 2 Weeks

Now
52 °F

Light rain. Scattered clouds.


Feels Like: 51 °F
Forecast: 49 / 60 °F
Wind: 3 mph from North

Location: Belfast / Harbour

Current Time: Jun 29, 2016 at 8:26:53 AM

Latest Report: Jun 29, 2016 at 7:50 AM


Visibility: 5 mi

Pressure: 29.56 "Hg

Humidity: 94%

Dew Point: 50 °F

Location of BelfastLocation

Past Weather in Belfast — Graph

°F

Belfast Temperature Yesterday

Maximum temperature yesterday: 57 °F (at 11:20 AM)
Minimum temperature yesterday: 52 °F (at 6:20 AM)
Average temperature yesterday: 56 °F

High & Low Weather Summary for the Past Weeks

 TemperatureHumidityPressure
High68 °F (Jun 22, 2:50 PM)100% (Jun 19, 6:20 AM)30.15 "Hg (Jun 19, 6:20 AM)
Low52 °F (Jun 17, 6:20 AM)53% (Jun 22, 2:50 PM)29.39 "Hg (Jun 14, 4:20 PM)
Average59 °F77%29.85 "Hg
* Reported Jun 14 7:20 AM — Jun 29 7:20 AM, Belfast, Weather by CustomWeather, © 2016

Note: Actual official high and low records may vary slightly from our data, if they occured in-between our weather recording intervals... More about our weather records

Advertising

Belfast Weather History for the Previous 24 Hours

Scroll right to see more
 ConditionsComfort  
Time TempWeatherWind HumidityBarometerVisibility
7:20 AM
Wed, Jun 29
52 °FLight rain. Broken clouds.6 mph94%29.59 "Hg6 mi
6:50 AM52 °FSprinkles. Broken clouds.6 mph94%29.59 "HgN/A
6:20 AM52 °FBroken clouds.5 mph88%29.59 "HgN/A
9:50 PM
Tue, Jun 28
55 °FScattered clouds.7 mph88%29.71 "HgN/A
9:20 PM55 °FScattered clouds.9 mph88%29.71 "HgN/A
8:50 PM55 °FScattered clouds.12 mph82%29.71 "HgN/A
8:20 PM57 °FScattered clouds.13 mph77%29.71 "HgN/A
7:50 PM57 °FScattered clouds.8 mph77%29.71 "HgN/A
7:20 PM57 °FPassing clouds.8 mph77%29.71 "HgN/A
6:50 PM57 °FPartly sunny.7 mph77%29.71 "HgN/A
6:20 PM57 °FPartly sunny.8 mph77%29.71 "HgN/A
5:50 PM57 °FBroken clouds.8 mph77%29.71 "HgN/A
5:20 PM57 °FBroken clouds.7 mph77%29.74 "HgN/A
4:50 PM57 °FBroken clouds.8 mph77%29.74 "HgN/A
4:20 PM57 °FScattered showers. Broken clouds.10 mph82%29.74 "HgN/A
3:50 PM57 °FScattered showers. Broken clouds.8 mph88%29.77 "Hg5 mi
3:20 PM55 °FLight rain. Broken clouds.7 mph88%29.77 "Hg5 mi
2:50 PM55 °FLight rain. Broken clouds.7 mph88%29.77 "HgN/A
2:20 PM57 °FLight rain. Broken clouds.6 mph82%29.80 "HgN/A
1:50 PM55 °FLight rain. Broken clouds.8 mph88%29.80 "HgN/A
1:20 PM55 °FLight rain. Broken clouds.7 mph88%29.83 "HgN/A
12:50 PM55 °FLight rain. Broken clouds.10 mph88%29.83 "HgN/A
12:20 PM57 °FScattered clouds.12 mph77%29.83 "HgN/A
11:50 AM57 °FScattered clouds.12 mph72%29.83 "HgN/A
11:20 AM57 °FBroken clouds.12 mph72%29.86 "HgN/A
10:50 AM55 °FBroken clouds.9 mph82%29.86 "HgN/A
10:20 AM55 °FScattered clouds.8 mph82%29.89 "HgN/A
9:50 AM54 °FScattered clouds.7 mph88%29.89 "HgN/A
9:20 AM54 °FScattered clouds.7 mph88%29.89 "HgN/A
8:50 AM54 °FBroken clouds.7 mph88%29.89 "HgN/A
8:20 AM54 °FBroken clouds.5 mph88%29.89 "HgN/A
Weather by CustomWeather, © 2016

See weather overviewHow to use our weather pages